Hourly Data Report for October 30, 2013

All times are specified in Local Standard Time (LST). Add 1 hour to adjust for Daylight Saving Time where and when it is observed.

MONCTON INTL A
NEW BRUNSWICK

46°06'44.000" N
64°40'43.000" W
70.70 m
8103201
71705
YQM

Download Data

Hourly Data (October 2013)
Hourly Data Report for October 30, 2013
Temp Definition
°C
Dew Point Temp Definition
°C
Rel Hum Definition
%
Wind Dir Definition
10's deg

Wind Spd Definition
km/h
Visibility Definition
km
Stn Press Definition
kPa
Hmdx Definition


Wind Chill Definition


Weather Definition


TIME
00:00 Legend Double Dagger -4.7 -6.7 86 22 13 24.1 101.87   -10 LegendNANA
01:00 Legend Double Dagger -4.8 -6.8 86 20 12 24.1 101.80   -10 LegendNANA
02:00 Legend Double Dagger -5.2 -6.9 88 18 12 24.1 101.76   -10 Clear
03:00 Legend Double Dagger -5.3 -7.3 86 21 13 24.1 101.73   -10 LegendNANA
04:00 Legend Double Dagger -5.6 -7.0 90 22 10 24.1 101.69   -10 LegendNANA
05:00 Legend Double Dagger -6.4 -7.4 93 21 11 24.1 101.69   -11 Clear
06:00 Legend Double Dagger -6.6 -7.4 94 30 4 24.1 101.67   -9 LegendNANA
07:00 Legend Double Dagger -6.2 -7.4 91 21 5 24.1 101.63   -9 LegendNANA
08:00 Legend Double Dagger -5.3 -6.5 91 22 6 24.1 101.60   -8 Cloudy
09:00 Legend Double Dagger -3.0 -5.0 86 20 5 24.1 101.57   -5 LegendNANA
10:00 Legend Double Dagger -1.4 -4.6 79 23 7 24.1 101.53   -4 LegendNANA
11:00 Legend Double Dagger 2.2 -5.0 59 22 13 24.1 101.44     Mostly Cloudy
12:00 Legend Double Dagger 4.2 -3.8 56 24 15 24.1 101.32     LegendNANA
13:00 Legend Double Dagger 4.3 -4.7 52 24 22 24.1 101.20     LegendNANA
14:00 Legend Double Dagger 5.7 -5.0 46 23 24 24.1 101.09     Mostly Cloudy
15:00 Legend Double Dagger 5.2 -7.3 40 24 22 24.1 101.05     LegendNANA
16:00 Legend Double Dagger 4.5 -8.6 38 27 21 24.1 101.06     LegendNANA
17:00 Legend Double Dagger 2.5 -8.3 45 25 14 24.1 101.07     Clear
18:00 Legend Double Dagger 0.6 -8.2 52 30 17 24.1 101.13     LegendNANA
19:00 Legend Double Dagger 0.9 -8.1 51 29 17 24.1 101.15     LegendNANA
20:00 Legend Double Dagger 0.3 -8.5 52 26 8 24.1 101.16     Clear
21:00 Legend Double Dagger -1.9 -7.4 66 20 8 24.1 101.15   -5 LegendNANA
22:00 Legend Double Dagger -2.4 -7.5 68 19 10 24.1 101.16   -6 LegendNANA
23:00 Legend Double Dagger -3.2 -7.0 75 18 13 24.1 101.17   -8 Clear

Notes on Data Quality.

Legend

  • E = Estimated
  • M = Missing
  • NA = Not Available
  • ‡ = Partner data that is not subject to review by the National Climate Archives
Date modified: